Regional Weather Roundup
Issued by NWS Huntsville, AL

Home | Current Version | Previous Version | Text Only | Print | Product List | Glossary On
Versions: 1 2 3 4 5 6 7 8 9 10 11 12 13 14 15 16 17 18 19 20 21 22 23 24 25 26 27 28 29 30 31 32 33 34 35 36 37 38 39 40 41 42 43 44 45 46 47 48 49 50
000
ASUS44 KHUN 202310
RWRHUN

WEATHER ROUNDUP FOR THE TENNESSEE VALLEY
NATIONAL WEATHER SERVICE HUNTSVILLE AL
500 PM CST THU NOV 20 2014

ALZ001>004-210000-
NORTHWEST ALABAMA

CITY           SKY/WX    TMP DP  RH WIND       PRES   REMARKS
COURTLAND HCN    N/A     50 N/A N/A NW3         N/A
RUSSELLVILLE     N/A     50 N/A N/A MISG        N/A
SHOALS AIRPORT   N/A     49  26  41 MISG      30.23R
SHOALS TVA RES   N/A     50 N/A N/A MISG        N/A
$$

ALZ005>007-016-210000-
NORTH CENTRAL ALABAMA

CITY           SKY/WX    TMP DP  RH WIND       PRES   REMARKS
CULLMAN AG STN   N/A     54 N/A N/A MISG        N/A
DECATUR AP     CLEAR     46  30  53 CALM      30.22R
HUNTSVILLE AP  PTCLDY    49  31  49 NW5       30.21S
MERIDIANVILLE  CLEAR     46  23  39 CALM      30.21R
REDSTONE ARSN  CLEAR     49  32  52 NW8       30.20S
VINEMONT AP    FAIR      49  32  52 CALM      30.22R
$$

ALZ008>010-210000-
NORTHEAST ALABAMA

CITY           SKY/WX    TMP DP  RH WIND       PRES   REMARKS
ALBERTVILLE    CLEAR     52  37  58 NW3       30.19R
FORT PAYNE     CLEAR     50  25  37 CALM      30.19S
SCOTTSBORO AP  CLEAR     50  32  50 CALM      30.22R
SCOTTSBORO HCN   N/A     52 N/A N/A MISG        N/A
VALLEY HEAD      N/A     46 N/A N/A MISG        N/A
$$

TNZ076-096-097-210000-
SOUTHEASTERN MIDDLE TENNESSEE

CITY           SKY/WX    TMP DP  RH WIND       PRES   REMARKS
TULLAHOMA      CLEAR     45  21  39 N3        30.21S
WINCHESTER     CLEAR     46  25  42 CALM      30.21R
$$

...SURROUNDING SITES...

CITY           SKY/WX    TMP DP  RH WIND       PRES   REMARKS
ATLANTA        PTCLDY    55  28  35 W3        30.18R
ANNISTON       CLEAR     49  36  61 CALM      30.21R
BIRMINGHAM     PTCLDY    55  36  48 CALM      30.22S
CHATTANOOGA    PTCLDY    52  26  36 W6        30.20R
CORINTH        HAZE      50  25  37 CALM      30.21S VSB 3/4
DALTON         CLEAR     52  32  46 CALM      30.18S
GADSDEN        CLEAR     48  32  53 CALM      30.20S
GOLDEN TRNGL   MOCLDY    57  43  58 CALM      30.20R
HALEYVILLE     FAIR      47  33  58 CALM      30.23R
JACKSON TN     CLOUDY    45  24  43 CALM      30.22S
LEWISBURG      FAIR      43  23  45 CALM      30.22R
MEMPHIS        MOCLDY    54  25  32 E5        30.19S
MURFREESBORO   FAIR      46  19  34 W3        30.22R
NASHVILLE      CLEAR     45  18  34 SW3       30.22S
OXFORD MS      MOCLDY    50  34  53 E3        30.21S
ROME           CLEAR     53  30  41 W5        30.18R
SAVANNAH       CLEAR     45  28  53 CALM      30.22S
TUPELO         CLOUDY    55  34  45 CALM      30.20S
TUSCALOOSA     CLOUDY    58  45  62 CALM      30.21S
$$

...GULF COAST WEATHER...

CITY           SKY/WX    TMP DP  RH WIND       PRES   REMARKS
GULFPORT       CLEAR     59  43  55 S3        30.22S
PASCAGOULA     CLEAR     59  49  69 CALM      30.23R
MOBILE         MOCLDY    58  45  62 S8        30.23R
GULF SHORES    CLEAR     58  46  64 CALM      30.23S
PENSACOLA      PTCLDY    57  45  64 S5        30.23R
DESTIN         CLEAR     61  46  57 CALM      30.23S
PANAMA CITY    CLEAR     55  44  67 NW3       30.23S
APPALACHICOLA  PTCLDY    53  41  63 CALM      30.23S
$$



USA.gov is the U.S. government's official web portal to all federal, state and local government web resources and services.